Regional Weather Roundup
Issued by NWS

Home | Current Version | Previous Version | Graphics & Text | Print | Product List | Glossary Off
Versions: 1 2 3 4 5 6 7 8 9 10 11 12 13 14 15 16 17 18 19 20 21 22 23 24 25 26 27 28 29 30 31 32 33 34 35 36 37 38 39 40 41 42 43 44 45 46 47 48 49 50

000
ASUS43 KTOP 020008
RWRKS

WEATHER ROUNDUP FOR KANSAS
NATIONAL WEATHER SERVICE GOODLAND KS
600 PM CST SUN FEB 01 2015

NOTE:  "FAIR" INDICATES FEW OR NO CLOUDS BELOW 12,000 FEET WITH NO
SIGNIFICANT WEATHER AND/OR OBSTRUCTIONS TO VISIBILITY.

KSZ001>006-013>018-027>032-041>047-020100-
NORTHWEST KANSAS

CITY           SKY/WX    TMP DP  RH WIND       PRES   REMARKS
GOODLAND       CLEAR     13   5  70 N21G32    30.24R WCI  -5
6HR MIN TEMP:  13; 6HR MAX TEMP:  19; 6HR PCP: TRACE;

HAYS           MOCLDY    16   1  53 N23G30    30.28R WCI  -2
HILL CITY      PTCLDY    14   5  67 NW23G30   30.31R WCI  -5
6HR MIN TEMP:  14; 6HR MAX TEMP:  19; 6HR PCP: TRACE;

RUSSELL        MOCLDY    15   8  73 N20       30.27R WCI  -2
6HR MIN TEMP:  15; 6HR MAX TEMP:  20; 6HR PCP: TRACE;

$$

KSZ061>065-074>080-084>089-020100-
SOUTHWEST KANSAS

CITY           SKY/WX    TMP DP  RH WIND       PRES   REMARKS
DODGE CITY     PTCLDY    19   5  54 N25G35    30.26R WCI   1
6HR MIN TEMP:  19; 6HR MAX TEMP:  28;

ELKHART          N/A     29  14  53 N13         N/A  WCI  19
GARDEN CITY    CLEAR     18   7  62 N23G32    30.26R WCI   0
6HR MIN TEMP:  18; 6HR MAX TEMP:  27;

LIBERAL        CLEAR     27  10  50 N25       30.28R WCI  11
PRATT          MOCLDY    19  10  68 N29G36    30.25R WCI   1
$$

KSZ066>073-081>083-090>101-020100-
SOUTHEAST KANSAS

CITY           SKY/WX    TMP DP  RH WIND       PRES   REMARKS
CHANUTE        FLURRIES  19  10  68 NW26G39   30.14R WCI   1
6HR MIN TEMP:  19; 6HR MAX TEMP:  30; 6HR PCP: TRACE;

COFFEYVILLE    CLOUDY    22  12  65 NW26G38   30.16R WCI   5
6HR MIN TEMP:  22; 6HR MAX TEMP:  33;

HUTCHINSON     CLOUDY    18   8  65 N26G38    30.23R WCI  -1
6HR MIN TEMP:  18; 6HR MAX TEMP:  23; 6HR PCP: TRACE;

MEDICINE LODGE   N/A     22  11  62 N21G31    30.24R WCI   6
NEWTON         MOCLDY    16   3  57 N29G44    30.19R WCI  -4
PARSONS        CLOUDY    21  12  68 NW21G36   30.15R WCI   5
6HR MIN TEMP:  21; 6HR MAX TEMP:  32;

WICHITA INTL   FLURRIES  19   8  62 N30G40    30.22R WCI   0
6HR MIN TEMP:  19; 6HR MAX TEMP:  26; 6HR PCP: TRACE;

WICHITA JABRA  CLOUDY    17  15  92 NW23G37   30.21R WCI  -1
6HR MIN TEMP:  17; 6HR MAX TEMP:  23; 6HR PCP: TRACE;

WICHITA MCCONL MOCLDY    18   9  68 N23G35    30.21R WCI   0
WINFIELD       CLOUDY    21  11  65 NW23G29   30.21R WCI   5
6HR MIN TEMP:  21; 6HR MAX TEMP:  28; 6HR PCP: TRACE;

$$

KSZ007>012-019>026-033>040-048>060-102>105-020100-
NORTHEAST KANSAS

CITY           SKY/WX    TMP DP  RH WIND       PRES   REMARKS
CONCORDIA      LGT SNOW  10   4  76 NW25G32   30.27R WCI -11
6HR MIN TEMP:  10; 6HR MAX TEMP:  14; 6HR PCP: TRACE;

EMPORIA        FLURRIES  13   8  81 NW26G37   30.17R WCI  -7
6HR MIN TEMP:  13; 6HR MAX TEMP:  23; 6HR PCP: TRACE;

LAWRENCE       LGT SNOW  16  11  80 NW21G36   30.13R WCI  -1
6HR MIN TEMP:  16; 6HR MAX TEMP:  28; 6HR PCP: TRACE;

MANHATTAN      LGT SNOW  12   6  77 NW13G25   30.26R VSB 1   WCI  -3
6HR MIN TEMP:  12; 6HR MAX TEMP:  18; 6HR PCP: TRACE;

MARYSVILLE     LGT SNOW  10   5  79 N18G24    30.23R WCI  -8
OLATHE IND     LGT SNOW  17  13  84 NW24G37   30.08R FOG     WCI  -1
6HR MIN TEMP:  17; 6HR MAX TEMP:  30; 6HR PCP: TRACE;

OLATHE EXE     LGT SNOW  19  15  84 NW16G29   30.05R FOG     WCI   4
6HR MIN TEMP:  19; 6HR MAX TEMP:  31; 6HR PCP: TRACE;

SALINA         CLOUDY    14   7  73 N26G38    30.27R WCI  -6
6HR MIN TEMP:  14; 6HR MAX TEMP:  21; 6HR PCP: TRACE;

TOPEKA BILLARD FLURRIES  15   7  70 NW21G32   30.18R WCI  -2
6HR MIN TEMP:  15; 6HR MAX TEMP:  26; 6HR PCP: TRACE;

TOPEKA FORBES  MIX PCPN  16   8  71 NW29G40   30.14R WCI  -4
6HR MIN TEMP:  16; 6HR MAX TEMP:  27; 6HR PCP: TRACE;

$$


USA.gov is the U.S. government's official web portal to all federal, state and local government web resources and services.